| time (UTC) | temp F | wind direction | speed knots | gust knots | rain 1hr in | rain 24hr in | rain mn in | humidity % | barometer mb |
| 20260505013037 | 62 | 102 | 3.5 | 10.4 | 0.00 | 0.00 | 0.00 | 52 | 1008.9 |
| 20260505011544 | 62 | 147 | 0.9 | 9.6 | 0.00 | 0.00 | 0.00 | 50 | 1008.6 |
| 20260505010053 | 63 | 52 | 1.7 | 6.1 | 0.00 | 0.00 | 0.00 | 48 | 1008.4 |
| 20260505004538 | 64 | 91 | 1.7 | 4.3 | 0.00 | 0.00 | 0.00 | 45 | 1008.0 |
| 20260505003037 | 64 | 125 | 0.9 | 2.6 | 0.00 | 0.00 | 0.00 | 43 | 1007.6 |
| 20260505001539 | 65 | 175 | 0.0 | 3.5 | 0.00 | 0.00 | 0.00 | 43 | 1007.2 |
| 20260504234541 | 66 | 153 | 0.9 | 5.2 | 0.00 | 0.00 | 0.00 | 40 | 1006.8 |
| 20260504233039 | 67 | 146 | 0.9 | 7.8 | 0.00 | 0.00 | 0.00 | 39 | 1006.6 |
| 20260504231538 | 69 | 131 | 1.7 | 6.1 | 0.00 | 0.00 | 0.00 | 37 | 1006.5 |
| 20260504230040 | 70 | 0 | 1.7 | 7.8 | 0.00 | 0.00 | 0.00 | 35 | 1006.2 |
| 20260504224538 | 70 | 140 | 3.5 | 13.0 | 0.00 | 0.00 | 0.00 | 35 | 1006.1 |
| 20260504223037 | 70 | 203 | 2.6 | 11.3 | 0.00 | 0.00 | 0.00 | 34 | 1006.0 |
| 20260504221542 | 71 | 132 | 2.6 | 8.7 | 0.00 | 0.00 | 0.00 | 35 | 1006.0 |
| 20260504220048 | 70 | 143 | 1.7 | 7.0 | 0.00 | 0.00 | 0.00 | 35 | 1006.0 |
| 20260504214538 | 70 | 140 | 3.5 | 8.7 | 0.00 | 0.00 | 0.00 | 35 | 1006.0 |
| 20260504213053 | 71 | 163 | 4.3 | 9.6 | 0.00 | 0.00 | 0.00 | 34 | 1005.8 |
| 20260504211541 | 71 | 171 | 3.5 | 8.7 | 0.00 | 0.00 | 0.00 | 34 | 1006.1 |
| 20260504210038 | 71 | 96 | 3.5 | 13.9 | 0.00 | 0.00 | 0.00 | 35 | 1006.0 |
| 20260504204542 | 71 | 141 | 3.5 | 16.5 | 0.00 | 0.00 | 0.00 | 34 | 1005.9 |
| 20260504203040 | 71 | 165 | 4.3 | 12.2 | 0.00 | 0.00 | 0.00 | 33 | 1005.9 |
| 20260504201539 | 72 | 169 | 3.5 | 10.4 | 0.00 | 0.00 | 0.00 | 33 | 1005.9 |
| 20260504200038 | 71 | 172 | 5.2 | 11.3 | 0.00 | 0.00 | 0.00 | 32 | 1005.8 |
| 20260504194538 | 71 | 169 | 2.6 | 12.2 | 0.00 | 0.00 | 0.00 | 34 | 1005.9 |
| 20260504193053 | 71 | 155 | 4.3 | 10.4 | 0.00 | 0.00 | 0.00 | 33 | 1005.9 |
| 20260504191541 | 71 | 146 | 2.6 | 9.6 | 0.00 | 0.00 | 0.00 | 32 | 1005.9 |
| 20260504190042 | 70 | 86 | 3.5 | 11.3 | 0.00 | 0.00 | 0.00 | 33 | 1006.1 |
| 20260504184542 | 70 | 157 | 6.1 | 11.3 | 0.00 | 0.00 | 0.00 | 32 | 1006.2 |
| 20260504183049 | 70 | 346 | 5.2 | 14.8 | 0.00 | 0.00 | 0.00 | 34 | 1006.1 |
| 20260504181539 | 69 | 131 | 6.1 | 14.8 | 0.00 | 0.00 | 0.00 | 33 | 1006.5 |
| 20260504180058 | 69 | 120 | 2.6 | 16.5 | 0.00 | 0.00 | 0.00 | 34 | 1006.3 |
| 20260504174541 | 69 | 113 | 4.3 | 13.0 | 0.00 | 0.00 | 0.00 | 35 | 1006.6 |
| 20260504173039 | 68 | 122 | 4.3 | 13.9 | 0.00 | 0.00 | 0.00 | 36 | 1006.6 |
| 20260504171541 | 68 | 188 | 4.3 | 17.4 | 0.00 | 0.00 | 0.00 | 35 | 1006.7 |
| 20260504081538 | 43 | 138 | 0.9 | 3.5 | 0.00 | 0.00 | 0.00 | 65 | 1009.5 |
| 20260504044538 | 38 | 0 | 0.0 | 0.9 | 0.00 | 0.01 | 0.00 | 72 | 1009.6 |
| 20260504043051 | 37 | 143 | 0.0 | 0.0 | 0.00 | 0.01 | 0.00 | 72 | 1009.5 |
| 20260504041539 | 38 | 0 | 0.0 | 0.0 | 0.00 | 0.01 | 0.00 | 73 | 1009.4 |
| 20260504040039 | 38 | 0 | 0.0 | 1.7 | 0.00 | 0.01 | 0.00 | 72 | 1009.4 |
| 20260504034544 | 38 | 165 | 0.0 | 0.0 | 0.00 | 0.01 | 0.01 | 71 | 1009.3 |
| 20260504033041 | 39 | 0 | 0.0 | 0.0 | 0.00 | 0.01 | 0.01 | 71 | 1009.2 |
| 20260504031538 | 39 | 0 | 0.0 | 0.0 | 0.00 | 0.01 | 0.01 | 69 | 1009.3 |
| 20260504030042 | 40 | 0 | 0.0 | 0.0 | 0.00 | 0.01 | 0.01 | 67 | 1009.2 |
| 20260504024539 | 41 | 0 | 0.0 | 0.0 | 0.00 | 0.01 | 0.01 | 65 | 1009.2 |
| 20260504023040 | 41 | 0 | 0.0 | 0.0 | 0.00 | 0.01 | 0.01 | 64 | 1009.2 |
| 20260504021537 | 41 | 0 | 0.0 | 0.0 | 0.00 | 0.01 | 0.01 | 64 | 1009.2 |
| 20260504020046 | 41 | 0 | 0.0 | 0.0 | 0.00 | 0.01 | 0.01 | 63 | 1009.2 |
| 20260504014549 | 42 | 0 | 0.0 | 0.0 | 0.00 | 0.01 | 0.01 | 62 | 1009.0 |